Wind_Speed
12 12 13 15 17 18 14 10 11 11 5 2 2 3 4 5 7 11 17 26 28 26 25 21 19 25 29 29 26 27 29 28 28 27 25 25 22 22 23 20 21 23 21 21 19 18 17 15 13 12 10 10 10 11 11 11 11 11 12 13 14 15 16 16 16 17 18 18 18 17 16 16 16 16 16 16 15 15 15 14 15 15 15 14 14 15
11 15 15 13 14 16 13 11 11 11 9 4 2 3 4 5 7 10 15 23 29 27 25 22 21 28 31 29 26 27 29 28 28 28 26 25 22 22 23 20 22 23 22 22 20 18 17 14 14 12 10 10 10 12 12 12 12 12 13 13 14 15 16 16 16 16 17 17 17 17 16 15 15 15 15 15 15 14 14 14 14 14 14 14 14 14
13 16 16 11 11 14 12 13 13 13 10 6 6 4 2 6 8 10 13 19 28 29 27 25 24 28 31 30 28 27 29 29 28 27 26 26 22 23 24 20 23 25 22 22 21 19 17 14 14 13 11 11 11 11 11 12 13 13 13 14 15 16 16 17 16 16 16 17 17 17 16 16 15 14 15 15 15 14 14 14 14 14 14 13 13 14
16 12 12 12 12 13 13 13 13 13 12 11 11 7 4 7 9 11 15 19 25 27 27 27 25 28 31 29 30 29 29 30 29 28 27 25 23 24 24 20 23 26 22 23 23 19 17 16 14 13 12 12 12 12 11 12 13 13 13 13 15 16 16 17 17 16 15 16 16 16 16 16 15 14 14 14 15 15 14 14 13 13 13 13 13 13
17 10 7 12 15 17 17 15 14 14 15 15 13 8 5 7 7 10 15 19 23 23 25 26 22 27 32 29 30 31 30 31 30 29 28 25 22 23 24 21 22 25 23 24 24 20 17 16 14 13 12 12 12 13 12 12 12 12 13 13 14 15 16 16 16 15 15 14 14 14 15 16 14 13 13 13 14 14 14 14 14 13 13 12 13 13
17 11 9 11 15 20 18 15 17 17 15 17 14 9 6 7 7 10 15 20 23 19 22 25 17 20 31 30 30 32 30 31 30 30 30 26 24 25 24 22 23 24 23 23 23 21 17 16 15 15 14 13 12 13 12 12 12 12 12 12 13 14 15 16 16 16 15 15 14 13 13 14 13 13 13 13 13 14 13 14 14 13 13 12 12 12
16 14 12 12 14 17 16 15 18 19 19 20 18 13 9 7 6 10 15 20 23 20 23 29 18 13 26 31 30 32 32 31 30 31 32 30 27 27 25 24 25 25 24 24 24 21 18 16 15 15 15 14 13 13 13 12 12 12 12 12 12 13 14 15 16 16 16 15 15 14 14 14 14 13 13 13 14 14 14 14 13 13 12 12 12 11
16 15 14 15 16 14 15 16 14 16 18 15 16 16 11 7 5 8 15 18 21 20 20 29 24 13 22 31 31 31 33 32 31 32 32 32 30 28 27 26 25 25 25 25 25 23 20 17 15 15 15 14 13 14 13 13 13 12 12 12 12 13 14 14 16 16 16 15 15 15 14 14 14 14 13 13 14 14 14 14 13 13 12 12 12 11
13 14 14 16 19 17 16 15 12 12 10 13 16 15 11 8 6 8 14 15 16 16 16 26 26 12 14 29 32 31 33 33 32 33 33 32 31 30 29 27 25 25 25 24 25 24 21 17 16 15 15 14 14 14 13 13 13 13 12 12 13 13 13 13 14 15 15 15 15 15 14 14 14 14 14 13 13 13 14 13 13 13 12 12 12 11
12 15 14 11 16 19 15 14 13 10 8 16 17 12 10 8 9 11 11 9 10 11 13 25 29 13 7 25 35 33 35 36 33 33 33 32 31 31 30 27 27 27 25 23 24 24 21 18 17 16 15 15 14 14 14 14 13 13 13 13 13 13 13 12 13 14 15 14 14 14 14 14 14 14 14 13 13 12 13 14 13 13 12 12 12 12
10 12 12 10 14 17 14 13 12 6 10 22 18 13 15 12 11 11 9 8 6 6 11 21 31 19 6 19 34 36 37 36 33 33 34 33 31 31 30 28 28 27 25 23 23 23 20 18 18 18 16 16 15 15 15 15 14 14 13 13 13 13 13 12 12 13 13 14 14 14 14 14 14 14 13 13 13 12 13 13 13 13 12 12 12 12
8 8 11 14 16 14 11 14 12 6 15 24 16 14 17 13 10 8 7 7 3 3 6 14 27 22 9 14 27 34 37 34 32 32 34 35 32 30 31 29 28 28 25 24 24 23 21 20 19 19 18 17 16 15 16 16 15 14 14 13 13 13 13 12 12 12 13 13 14 14 14 14 13 14 13 13 13 13 12 13 13 12 12 12 12 12
12 11 12 16 18 15 11 13 15 14 18 17 13 15 15 9 5 4 4 3 2 1 3 8 20 18 13 16 21 29 34 33 32 30 31 34 31 30 31 29 29 29 26 25 26 24 22 21 20 20 20 19 17 15 16 16 16 15 15 14 14 13 13 13 12 12 12 12 13 13 13 13 13 13 13 12 12 12 12 12 12 12 12 12 11 11
11 11 11 13 15 17 14 15 17 18 21 18 13 14 11 6 3 2 2 1 1 0 2 6 15 11 12 16 17 23 30 32 32 29 29 33 31 30 31 29 30 31 28 27 28 25 23 22 21 21 21 21 18 16 15 16 15 15 15 15 15 15 14 13 13 12 12 12 12 13 12 12 12 12 12 12 12 12 12 12 12 12 12 12 11 11
11 10 11 12 12 17 18 21 18 11 16 19 13 9 8 9 6 3 4 3 5 2 3 9 11 6 7 9 11 17 23 29 33 31 30 33 33 32 31 31 31 31 29 28 29 27 24 22 22 22 22 21 20 17 17 17 16 15 14 15 16 16 14 13 12 12 12 11 11 12 12 12 12 12 12 12 12 12 13 12 12 12 11 11 11 11
13 15 16 13 12 13 16 23 20 9 7 13 14 10 7 8 9 9 7 8 10 4 4 8 7 5 6 5 6 12 19 28 31 31 34 36 35 35 34 33 32 31 29 27 28 28 25 23 22 23 22 22 21 19 17 17 16 14 14 14 16 16 14 13 13 13 12 12 12 12 11 12 12 12 12 11 11 12 13 12 12 12 11 11 11 10
8 10 13 16 16 12 10 17 19 11 5 8 14 12 11 11 11 12 9 7 8 4 1 5 4 4 5 5 5 9 16 27 30 30 32 32 32 33 34 33 31 30 29 26 26 27 26 25 23 23 23 22 21 20 18 16 15 14 13 13 15 16 15 14 14 13 12 12 12 12 11 11 11 11 11 12 12 12 12 12 11 11 11 11 10 10
9 9 7 13 22 18 10 12 17 13 8 7 7 5 7 11 11 11 8 6 5 1 2 7 8 7 6 5 7 10 14 23 29 29 28 29 30 32 35 34 30 31 30 27 27 27 26 25 24 24 23 22 21 20 18 17 16 15 13 13 13 14 15 15 14 14 13 12 12 11 11 10 11 11 11 11 11 10 11 11 11 11 11 11 10 10
7 11 8 11 23 20 10 9 15 17 14 12 5 3 10 11 9 10 7 5 4 0 1 5 7 9 11 10 9 14 19 21 24 26 26 28 32 33 35 35 32 31 31 29 29 29 27 26 26 25 23 21 21 21 19 17 17 16 15 14 13 13 14 15 15 15 14 13 12 12 11 11 11 11 10 10 10 10 10 9 10 10 10 10 9 9
6 8 6 11 18 16 14 8 14 19 18 14 7 3 7 9 8 12 10 5 5 3 1 2 3 8 13 12 9 12 18 19 21 24 26 29 33 33 34 36 34 32 32 31 31 31 28 26 26 26 24 22 22 22 21 19 17 17 16 16 15 14 14 15 15 16 15 14 13 12 12 12 11 10 10 10 10 10 9 9 9 10 9 8 8 8
7 8 7 7 13 14 17 14 12 16 17 14 11 8 6 7 7 10 11 7 6 5 3 2 1 5 9 11 11 10 12 15 16 19 24 29 34 36 34 35 35 33 32 31 31 31 30 28 27 26 24 23 22 22 22 20 18 17 16 16 15 15 14 14 14 15 15 16 15 14 13 12 11 11 11 10 10 10 10 9 9 9 8 8 8 8
7 7 8 3 4 6 12 16 14 14 15 14 14 12 8 7 7 6 5 6 7 7 8 7 2 1 6 10 11 10 10 12 11 12 18 24 32 38 37 34 35 33 31 32 31 30 31 30 28 27 27 25 23 22 22 21 20 19 17 17 16 15 15 13 13 13 14 16 16 15 14 13 12 11 11 11 10 11 10 9 9 9 9 8 8 8
8 6 9 10 7 6 6 13 12 11 16 16 15 14 11 9 8 7 4 5 5 3 7 9 3 2 7 8 8 9 9 9 10 12 13 17 27 36 38 37 36 33 31 32 31 30 30 31 29 28 28 27 24 22 22 22 21 20 19 18 17 16 15 15 14 13 13 14 15 16 15 14 13 13 12 12 11 11 11 11 11 10 9 9 8 8
6 5 11 12 8 8 7 12 10 9 17 17 14 17 19 14 11 11 7 6 6 4 7 7 2 3 9 8 7 8 9 9 10 13 14 15 20 29 36 39 38 35 33 32 30 29 29 30 29 29 30 29 26 23 22 23 22 20 20 19 18 17 16 15 15 14 14 13 14 15 16 15 15 14 13 13 12 12 12 12 12 11 10 10 9 8
5 7 14 12 7 9 6 6 9 9 12 13 12 15 19 16 12 12 11 12 12 10 9 6 2 7 9 9 9 7 8 10 10 13 17 18 19 24 32 38 38 36 34 32 31 30 29 30 30 29 30 30 27 25 24 23 22 21 21 20 18 18 17 16 16 16 15 14 13 14 15 15 15 15 14 14 13 12 12 12 12 11 11 11 10 9
6 6 10 9 6 6 5 3 3 1 5 10 9 8 13 16 15 12 10 15 14 10 12 12 10 13 13 10 9 7 8 10 10 12 16 19 20 22 28 36 38 37 36 33 32 31 29 30 30 30 31 30 28 26 25 24 22 21 20 19 18 18 18 17 17 16 16 15 14 14 14 14 14 14 14 14 14 13 13 13 12 12 12 12 11 11
6 5 8 7 6 7 10 10 8 6 3 12 12 6 7 8 8 11 10 13 14 10 14 13 12 15 16 12 7 7 8 8 9 11 15 19 22 23 25 31 35 36 35 35 34 31 29 31 31 31 31 29 26 26 25 25 23 21 19 18 17 17 18 18 18 17 16 15 15 15 14 14 14 14 13 13 13 13 13 13 13 13 13 12 13 13
4 5 6 7 9 11 12 12 10 9 6 8 7 9 8 6 5 9 6 5 15 15 14 13 12 12 15 13 7 6 8 8 9 11 14 17 19 22 24 28 34 36 35 35 36 33 31 31 31 31 30 28 27 26 26 24 24 23 21 18 18 18 17 18 19 18 17 16 16 15 15 14 14 14 13 13 13 13 13 14 14 13 13 13 13 13
4 6 7 9 12 10 9 11 11 9 6 2 3 13 7 2 7 15 16 11 8 16 15 16 15 10 11 10 6 6 8 8 8 9 12 14 15 19 22 25 30 35 36 35 35 34 33 33 32 30 29 29 29 28 26 25 25 25 23 21 21 20 19 19 19 18 18 18 17 16 15 15 15 15 15 14 13 13 13 13 14 15 15 15 15 14
4 6 8 11 13 10 9 9 6 7 7 8 7 14 17 13 18 24 20 13 5 13 16 18 16 12 9 6 6 6 7 8 8 6 8 11 13 16 18 19 22 29 36 38 37 36 36 34 32 31 31 32 31 29 27 25 24 25 24 24 24 24 23 23 22 20 19 18 18 17 16 16 16 16 16 16 15 14 14 14 14 14 15 16 16 16
6 7 9 9 10 11 9 6 6 9 5 15 17 17 16 12 14 20 21 20 19 20 22 22 20 16 11 7 8 8 8 9 9 7 7 9 12 14 15 17 18 21 31 39 41 40 39 36 34 34 35 36 33 29 26 24 24 24 24 25 25 25 25 25 24 22 20 20 20 20 19 18 17 17 17 17 16 16 16 16 15 15 15 15 15 15
6 8 8 7 8 11 7 8 13 11 8 21 25 25 21 18 17 19 21 22 21 20 21 22 20 16 11 8 7 7 7 7 7 7 7 8 11 14 15 15 14 15 21 32 40 40 37 37 39 39 39 37 33 29 26 24 24 24 25 26 24 24 25 25 25 24 23 22 22 21 20 20 19 19 19 19 19 18 18 18 16 16 17 17 15 15
6 10 10 9 9 11 11 13 16 13 20 22 24 23 22 20 17 16 17 16 14 14 16 18 16 12 10 9 8 7 6 6 3 2 4 6 8 10 11 12 13 12 14 22 32 36 35 35 38 39 37 33 28 26 26 25 24 24 25 25 24 24 25 25 24 24 24 23 21 21 21 21 20 21 21 21 20 19 20 21 21 20 20 19 18 17
7 8 5 7 9 11 12 10 7 13 17 16 19 20 18 14 12 14 19 17 12 12 13 13 10 8 8 8 8 7 5 6 4 2 2 4 6 7 8 11 12 12 12 15 23 31 34 34 34 33 32 28 26 26 26 27 26 25 24 25 25 24 25 25 24 25 27 25 22 21 22 21 21 23 23 21 20 19 20 21 21 21 20 20 20 20
9 6 4 7 9 9 9 6 6 11 12 12 16 19 16 13 11 12 17 16 12 12 12 9 7 7 5 6 7 5 4 5 4 2 2 2 4 6 8 10 11 13 14 15 19 25 30 31 31 30 29 28 28 29 29 28 27 26 25 25 26 25 26 27 27 27 28 27 23 22 23 22 21 22 22 22 22 22 22 22 21 21 21 21 21 21
6 7 9 10 7 6 5 4 5 9 12 12 13 16 17 13 8 8 12 13 11 10 9 7 7 6 5 5 6 5 5 4 3 4 4 5 6 8 9 10 11 13 14 15 18 22 25 28 28 28 28 27 26 28 29 28 26 26 26 27 29 29 29 30 29 29 28 27 25 26 26 26 24 23 22 24 24 24 24 23 22 22 22 22 22 22
4 7 10 9 5 5 3 7 12 11 8 9 11 15 18 13 8 7 11 13 10 6 6 5 4 5 5 4 4 4 4 4 3 3 4 5 6 7 8 8 9 12 14 15 17 19 22 24 25 25 26 27 28 30 30 29 27 28 30 31 32 31 29 28 28 26 25 26 27 28 29 29 29 27 27 27 26 26 25 24 23 24 25 25 25 26
5 5 7 7 5 5 2 6 10 5 3 7 10 11 13 12 7 6 5 9 10 8 5 3 2 2 3 3 3 3 4 4 4 5 6 4 2 3 4 4 5 8 11 14 15 16 19 22 23 24 26 29 32 34 33 33 32 32 32 33 32 30 27 27 27 27 27 29 29 28 29 30 29 28 28 29 29 27 27 26 27 27 27 28 29 29
4 4 5 7 6 5 4 3 5 3 2 4 5 4 7 9 6 4 3 6 8 8 6 3 2 2 2 1 2 4 4 4 3 4 4 3 3 5 6 7 9 8 7 11 14 16 18 18 18 20 23 27 29 30 32 32 31 29 28 28 28 27 27 27 28 29 29 30 29 28 30 31 30 29 29 29 30 29 28 29 30 29 27 28 30 32
4 4 5 7 7 5 3 4 7 5 4 3 2 3 2 3 4 2 2 4 6 6 6 5 4 3 2 3 1 2 2 3 1 2 3 2 4 6 7 9 11 11 7 8 12 15 18 18 18 19 21 22 21 21 24 26 23 20 20 21 21 22 24 25 26 28 29 29 28 27 28 30 30 29 28 29 30 30 30 31 31 28 26 26 28 30
2 1 4 5 3 4 3 8 10 7 6 5 5 7 5 3 3 1 3 1 3 3 3 5 5 4 3 3 1 0 1 2 2 0 1 3 6 8 10 11 11 10 6 2 5 9 12 13 14 14 15 15 15 16 19 20 18 15 16 18 19 20 22 24 25 27 28 27 25 24 23 24 24 24 25 26 28 29 31 32 30 27 25 25 27 29
3 3 6 5 7 7 6 13 12 7 5 4 4 6 7 6 3 6 6 4 1 1 1 3 4 3 2 2 1 2 2 2 2 2 3 4 5 5 8 11 11 8 6 4 2 4 6 6 7 8 9 11 14 15 16 17 17 16 16 19 20 20 22 23 23 25 26 24 23 22 20 20 21 21 22 24 25 27 28 28 26 25 24 23 24 25
3 3 5 6 8 10 10 12 8 4 1 2 3 4 4 4 10 11 8 5 3 2 2 1 2 1 1 1 0 0 1 2 4 4 5 5 4 3 5 8 9 7 6 5 3 3 3 4 5 7 9 11 13 14 15 15 16 16 16 18 20 20 21 21 21 23 24 23 22 21 19 20 21 21 22 22 23 25 25 24 23 23 21 21 22 24
2 2 3 4 5 6 8 10 7 3 1 2 3 1 2 5 9 10 6 4 3 2 1 1 2 2 3 3 2 2 2 2 4 5 5 5 3 2 3 4 4 5 5 5 5 5 5 5 5 6 7 9 11 12 13 14 14 15 16 17 18 18 19 19 19 20 21 23 22 20 19 21 22 22 22 23 23 22 20 19 19 16 11 11 15 20
3 2 1 2 3 4 9 13 11 6 3 3 2 3 6 7 7 5 3 2 3 2 1 1 2 2 3 4 5 4 3 1 2 3 5 5 4 3 3 2 2 3 4 5 5 5 5 5 5 6 8 9 10 11 12 13 13 14 15 15 15 16 17 18 19 18 19 22 23 21 20 20 19 19 19 21 23 20 14 12 14 11 9 9 10 12
6 4 2 2 5 8 12 12 8 6 5 4 5 6 7 7 6 4 3 2 3 3 1 1 1 1 2 3 3 3 3 2 1 2 3 4 4 3 2 1 0 1 2 3 3 3 3 4 4 5 7 8 10 11 12 12 12 12 12 13 13 15 16 17 19 19 18 19 19 19 19 18 18 18 17 17 21 20 15 14 15 14 14 15 15 15
3 1 1 4 5 8 11 10 7 7 5 4 5 7 7 7 6 4 3 3 3 4 3 1 2 3 5 4 2 1 2 1 2 3 3 3 4 4 3 1 1 1 2 2 3 3 4 4 5 5 6 7 9 11 11 12 12 12 14 14 15 16 17 17 18 18 16 15 15 16 18 19 19 19 19 18 19 18 16 16 16 15 14 15 17 20
4 4 4 5 4 5 9 9 8 7 4 2 2 4 4 4 4 2 2 2 2 3 4 3 2 3 4 4 4 3 3 2 3 4 4 4 4 5 4 3 2 1 1 2 4 4 4 4 4 5 5 7 8 9 11 11 11 12 13 13 14 15 16 17 17 15 14 14 14 15 17 20 20 20 20 19 19 19 18 17 17 16 16 16 17 18
5 4 5 6 6 5 7 7 7 6 5 4 3 3 3 2 2 1 1 2 2 2 2 3 2 2 2 2 3 3 3 3 3 4 5 6 7 7 6 4 4 4 3 3 4 4 4 4 4 4 5 6 8 9 10 10 10 11 12 12 13 14 14 15 15 13 12 12 12 12 13 15 15 16 16 16 15 15 16 14 13 13 13 12 13 13
6 5 5 6 6 7 9 9 7 6 5 4 5 5 4 3 2 0 1 2 3 3 2 1 1 2 1 0 1 1 1 2 2 3 6 7 8 9 8 7 7 8 7 6 5 5 5 5 5 5 6 7 9 10 11 10 10 11 12 11 12 12 12 12 12 10 10 10 11 11 11 10 10 10 11 12 13 13 12 10 9 9 9 10 10 11
8 5 5 6 7 7 8 8 6 6 6 5 5 5 5 4 3 2 2 3 3 4 4 4 2 1 2 2 2 2 2 2 2 4 5 7 8 9 9 9 9 11 10 8 7 8 8 8 7 7 9 10 12 13 13 13 12 12 12 11 11 10 10 10 9 8 8 10 11 11 10 9 9 9 9 9 11 11 11 10 10 11 11 12 12 13
Wind_Direction
196 202 213 216 206 197 194 202 221 230 230 209 159 175 214 220 200 191 193 195 195 192 189 187 183 179 172 164 166 175 180 180 176 180 184 189 190 175 182 192 166 168 179 173 180 190 198 204 192 186 177 166 163 160 160 157 152 149 150 150 149 148 145 144 144 144 145 145 144 142 142 143 140 138 136 136 137 137 138 139 140 139 138 138 138 137
203 207 214 223 209 188 191 214 217 217 227 232 181 169 187 205 198 188 192 194 194 194 188 185 185 179 169 163 171 182 184 182 180 182 184 191 191 174 187 194 166 172 184 176 183 193 196 202 196 187 178 170 165 163 162 158 157 153 152 154 152 151 149 147 148 148 148 148 147 145 145 143 138 135 134 135 136 137 140 142 144 144 141 140 139 139
205 214 218 218 209 189 191 214 211 201 208 229 220 207 191 189 180 175 182 188 191 194 190 185 188 180 168 168 175 181 185 183 184 185 184 192 190 176 192 193 168 178 187 177 182 193 197 201 197 186 176 173 168 166 165 161 160 157 156 156 155 154 152 151 152 153 154 153 151 150 148 145 141 138 136 137 138 140 143 144 147 147 146 145 144 142
208 232 225 204 206 204 204 208 207 207 212 233 231 215 193 182 175 169 172 183 190 195 194 186 184 181 172 175 179 178 184 185 186 187 185 195 193 181 195 194 176 186 188 178 184 194 197 201 195 180 176 178 171 169 172 167 163 162 162 160 158 158 157 156 154 155 158 156 154 155 150 146 146 144 141 141 140 141 144 145 147 148 149 150 147 144
213 244 239 200 200 207 215 210 207 220 217 218 230 226 196 177 179 174 168 180 189 193 196 186 180 184 180 180 181 180 186 188 189 188 185 193 193 187 199 199 186 191 190 181 186 194 196 200 193 174 178 184 174 173 174 169 167 165 166 162 161 162 162 159 156 156 160 158 159 159 151 148 150 147 144 143 141 141 144 146 148 149 150 151 149 146
223 232 234 211 200 205 220 216 209 219 208 201 222 234 210 179 171 174 166 172 180 186 197 189 180 188 188 186 185 183 187 190 192 190 186 189 188 191 202 200 192 194 194 187 188 194 196 199 192 174 178 185 177 177 175 171 170 168 168 165 164 166 164 161 159 159 162 162 162 158 152 152 152 149 147 145 142 141 144 147 148 150 152 152 151 150
228 218 218 211 201 205 217 220 215 217 209 205 214 216 210 193 160 170 174 172 178 185 196 195 190 190 194 194 190 187 190 193 194 192 190 189 186 193 201 198 196 196 196 191 189 195 199 199 193 179 180 184 180 182 179 175 174 170 170 169 166 167 165 164 163 163 166 167 165 161 158 157 155 154 153 149 147 147 148 150 150 151 153 155 155 154
227 223 216 208 205 202 208 217 217 211 204 196 197 196 189 175 135 161 176 178 185 186 189 196 196 191 200 202 195 191 194 195 195 195 195 191 186 192 200 198 198 200 199 195 191 195 201 199 194 187 185 183 182 185 183 179 176 172 172 172 169 169 169 168 166 166 168 168 166 165 163 160 159 159 157 154 153 152 151 154 154 154 156 157 157 158
225 223 206 207 208 196 201 215 208 201 179 144 160 177 166 147 125 149 170 181 192 184 180 193 196 192 205 205 199 197 201 200 197 197 197 195 188 191 200 198 197 203 205 201 195 196 201 197 192 193 190 185 184 186 185 182 178 175 174 173 172 172 172 170 169 169 170 169 166 167 168 164 162 162 161 160 158 155 156 159 159 159 160 160 159 159
216 208 202 215 209 193 199 210 199 207 176 146 154 154 134 130 135 139 152 172 185 186 193 197 195 194 205 202 200 202 205 203 200 199 200 200 192 191 199 196 193 203 209 205 199 199 200 194 191 195 196 194 188 183 186 185 181 180 177 176 176 176 175 170 169 170 170 170 169 168 170 168 167 166 165 163 162 160 161 163 164 165 165 164 162 161
218 204 206 207 196 191 203 204 195 219 176 162 160 141 122 113 127 132 133 144 157 201 220 206 197 195 198 201 203 207 209 206 203 202 201 200 194 190 197 196 192 201 207 204 201 202 200 194 191 194 197 201 194 182 185 186 184 183 181 180 180 180 179 173 169 172 172 172 171 169 169 172 173 172 169 167 166 166 164 165 167 170 171 169 167 166
240 225 206 192 190 190 203 201 192 204 179 166 158 138 121 110 120 113 111 137 156 251 247 216 199 196 206 209 210 214 213 209 208 206 202 201 197 191 196 196 194 202 206 201 202 205 199 192 193 194 197 204 201 186 184 186 185 185 186 186 185 184 183 177 172 173 175 176 174 171 170 173 176 176 176 174 170 170 169 168 170 173 175 174 173 172
240 233 199 184 190 183 186 194 182 180 185 179 162 139 122 117 140 96 94 161 235 290 305 222 198 200 228 227 216 213 210 208 211 211 206 205 200 192 195 195 193 202 206 199 203 207 199 193 194 195 196 203 204 192 185 188 187 186 189 189 187 190 188 182 178 175 176 178 175 174 172 174 177 178 179 179 176 175 174 172 173 176 178 177 176 175
230 237 193 170 187 190 190 192 182 176 179 179 169 154 139 133 151 119 121 175 251 116 44 190 189 204 238 235 224 215 209 207 212 214 209 207 203 194 192 194 196 203 204 197 200 207 202 195 195 197 199 202 205 198 189 189 190 187 189 191 190 193 193 188 182 178 178 179 177 178 177 175 179 180 179 182 181 177 176 177 177 178 180 180 178 177
203 229 197 169 189 207 208 200 198 198 189 183 177 171 161 148 140 141 151 181 217 204 105 160 180 207 235 237 232 222 212 209 212 212 207 205 203 195 189 194 201 204 204 201 201 206 206 200 196 198 201 202 204 203 194 190 193 190 187 192 193 193 195 194 189 185 184 183 179 182 183 178 179 181 181 185 184 179 180 181 179 179 181 182 182 180
201 216 206 197 204 216 220 211 212 242 243 203 191 194 204 183 155 133 138 176 189 171 118 167 191 230 239 246 228 215 208 204 206 205 204 205 203 194 187 194 203 205 207 207 203 204 208 206 200 200 204 204 204 206 199 191 194 194 188 190 195 195 196 197 195 193 191 189 186 186 188 183 180 182 181 183 185 183 184 184 182 181 182 184 186 185
239 223 205 204 204 206 223 217 216 242 272 194 192 211 231 214 166 133 126 154 162 138 139 205 245 253 237 247 215 203 204 201 200 201 205 209 206 194 188 193 201 206 209 209 205 205 209 209 205 204 208 208 205 207 204 195 194 197 192 190 195 198 198 197 199 197 195 195 194 192 191 186 183 184 182 184 187 186 186 187 187 185 184 186 190 189
282 277 249 198 194 199 212 213 214 229 239 202 191 196 188 181 159 142 136 142 149 84 186 207 243 241 215 222 198 177 180 191 198 205 211 213 208 197 189 191 197 204 210 209 207 210 213 212 208 206 209 210 209 210 208 203 200 198 198 198 198 199 200 200 200 198 195 196 199 198 194 189 187 188 188 188 187 186 188 191 191 189 188 188 190 191
301 297 287 183 184 190 188 213 220 218 227 235 236 123 141 153 157 157 150 145 160 18 212 206 243 239 219 221 208 180 172 177 191 206 215 213 207 198 190 191 194 202 210 210 208 211 214 215 212 209 209 208 208 212 211 207 205 201 201 205 203 198 198 202 203 201 198 196 198 200 199 197 195 193 193 191 188 189 193 194 194 193 193 191 190 193
329 309 283 169 174 176 163 199 231 217 218 230 238 216 166 161 172 181 181 169 154 147 210 214 256 249 229 220 217 195 184 187 194 204 214 211 204 199 194 193 194 198 206 211 211 211 212 214 213 211 211 207 207 212 213 208 205 204 205 206 205 201 198 202 204 204 203 202 201 201 201 202 201 197 197 195 191 193 196 196 195 196 194 189 188 194
303 306 295 179 174 176 174 188 213 217 221 222 226 246 222 186 180 183 190 196 173 151 149 154 214 249 223 203 210 213 199 203 207 211 218 215 205 200 196 196 196 195 200 209 213 212 212 215 215 213 214 211 208 211 214 211 205 204 208 208 208 208 204 202 204 205 206 206 206 206 205 205 204 202 201 199 196 195 196 196 196 195 193 186 184 191
316 321 326 300 231 236 210 194 189 203 218 219 226 240 237 217 197 165 172 206 203 181 173 179 172 206 205 203 214 223 210 204 210 218 224 220 209 201 196 199 202 197 196 206 213 212 211 214 214 213 215 214 211 211 214 214 208 206 209 210 209 210 208 205 205 207 208 207 206 207 208 207 205 203 202 203 202 198 197 197 196 197 196 190 187 187
330 321 323 318 306 307 233 190 182 203 207 209 222 226 222 231 221 197 189 201 223 224 166 161 118 124 195 206 215 222 212 197 202 210 215 217 210 202 198 200 202 196 194 204 213 213 212 214 215 212 213 214 213 212 214 216 213 209 211 212 210 210 211 208 204 207 210 208 204 205 207 208 206 205 205 205 207 206 204 200 198 202 202 197 196 194
317 354 346 325 287 284 252 191 181 204 205 208 216 211 213 225 219 214 215 187 199 211 140 118 53 207 190 186 194 209 206 191 189 191 190 195 200 198 197 197 194 193 196 202 209 215 216 217 217 212 212 214 213 212 215 219 218 214 212 213 211 210 213 211 207 207 209 208 204 204 207 209 207 207 207 208 209 211 212 208 205 207 208 207 206 205
327 17 1 347 326 314 298 175 167 191 216 243 241 208 211 221 215 219 216 191 196 198 162 135 166 194 189 183 182 192 205 202 191 180 179 181 183 186 190 193 192 195 202 202 205 211 213 214 216 212 212 215 214 211 215 219 220 217 213 211 210 209 212 214 212 210 209 209 207 206 208 211 210 209 209 210 212 214 216 216 214 214 214 216 217 215
320 347 351 357 4 335 311 320 335 280 243 255 244 207 215 218 214 222 203 183 192 187 163 160 159 168 182 186 178 184 206 209 199 186 183 184 187 188 191 196 198 200 204 204 204 206 206 208 212 212 212 215 214 211 212 214 215 217 215 213 210 208 210 214 215 213 211 210 208 208 211 213 214 213 212 213 214 215 218 220 220 220 219 220 221 220
285 311 344 345 325 308 303 306 325 350 281 225 221 257 262 221 215 243 232 198 191 156 132 146 153 162 177 180 174 185 198 206 206 200 195 196 201 204 204 206 207 205 206 206 207 207 205 205 208 211 214 215 215 212 210 209 210 214 217 217 218 214 211 214 216 214 212 213 212 211 213 216 216 216 215 216 217 218 220 222 221 223 225 226 225 224
289 297 333 332 311 307 303 298 301 318 302 218 227 310 289 241 278 289 283 193 180 161 133 147 164 169 176 177 175 179 181 191 204 210 208 208 211 212 211 211 211 209 207 206 207 208 207 205 207 212 214 213 212 211 210 209 212 215 216 217 222 224 219 218 220 217 212 214 216 214 214 216 218 218 218 218 219 221 224 225 223 222 226 230 230 230
284 299 315 319 309 294 280 296 300 301 320 116 50 7 12 202 6 30 44 52 162 175 157 157 163 158 162 172 177 177 175 179 191 212 216 213 215 216 214 214 214 214 212 210 210 211 209 205 206 212 214 212 211 210 208 209 211 213 214 213 218 223 223 223 224 222 217 217 220 219 218 219 219 220 222 222 221 224 229 233 231 226 226 230 233 233
286 309 321 311 301 294 290 297 269 260 342 49 66 30 45 66 50 52 59 54 108 157 149 147 149 137 133 151 159 166 182 183 184 209 218 210 212 216 219 221 222 221 219 215 212 212 212 206 204 208 212 212 213 213 213 215 217 217 217 216 215 217 218 219 220 222 221 222 222 220 219 221 222 222 225 225 223 224 228 236 240 236 232 231 231 233
337 332 333 312 292 298 306 304 254 257 351 63 63 40 46 70 60 59 70 78 97 121 134 141 145 140 139 150 153 164 190 194 188 204 217 209 207 211 217 222 226 226 224 219 213 209 206 203 201 207 211 211 212 214 216 220 223 224 225 223 220 219 220 220 217 216 219 224 226 224 221 222 224 225 227 228 225 223 226 234 243 247 243 236 229 226
356 337 329 329 305 298 321 353 324 313 80 77 48 37 55 72 71 66 65 73 87 106 123 130 128 131 149 169 169 178 200 198 188 195 208 214 214 214 214 217 224 226 224 221 217 209 203 199 200 206 211 212 212 214 218 222 226 227 228 229 229 228 228 226 221 217 218 224 229 231 229 227 227 227 227 227 224 220 220 224 231 237 241 240 233 223
342 326 317 336 323 305 336 353 342 14 69 60 30 39 65 72 75 75 63 63 75 92 108 110 105 119 148 168 185 202 211 217 221 210 215 220 223 222 214 214 223 221 216 220 218 212 208 205 204 209 214 214 213 215 219 224 229 228 226 229 234 234 231 230 229 225 222 224 229 233 235 234 232 231 230 229 229 227 223 222 224 228 235 241 243 237
323 322 305 321 313 310 341 6 28 55 63 48 37 56 68 63 73 80 72 68 70 86 102 104 109 136 151 163 186 200 209 226 249 292 272 238 225 223 216 214 218 209 202 213 216 212 212 211 209 212 218 218 220 224 226 227 231 231 228 230 233 231 229 234 239 233 225 223 226 233 237 238 237 236 234 232 234 237 237 234 231 232 236 240 245 247
292 301 298 300 297 303 332 8 56 64 75 79 70 70 64 47 50 75 83 81 80 99 122 134 145 159 173 191 204 212 226 236 233 215 246 251 227 220 217 214 210 201 197 205 210 210 214 217 216 215 219 221 225 230 229 226 227 231 233 236 236 234 233 237 241 236 226 223 226 234 241 244 245 244 240 235 236 238 241 242 241 242 242 242 247 252
265 272 294 302 290 278 314 21 90 99 100 104 92 77 65 47 30 55 76 74 73 100 135 158 172 184 205 228 243 242 228 224 204 180 192 208 213 216 215 208 201 198 199 207 214 216 218 223 224 220 218 221 225 229 229 226 227 233 238 239 237 236 236 235 234 231 227 225 225 231 239 244 248 250 246 241 239 239 241 244 246 248 246 244 247 252
269 251 274 297 298 272 309 92 125 137 110 96 93 74 62 48 13 16 57 63 59 76 114 138 169 187 196 226 259 265 261 254 218 167 168 198 221 232 225 210 197 198 200 205 217 223 223 228 232 228 224 225 227 230 234 235 236 238 241 242 239 238 239 239 238 235 235 236 234 234 239 244 247 248 246 244 245 245 247 248 247 246 246 247 250 253
284 263 264 270 282 282 277 107 119 131 70 76 83 80 81 74 34 349 36 57 49 55 84 115 123 128 156 200 233 263 283 264 205 159 155 178 261 321 296 263 243 226 213 208 214 221 223 230 235 232 230 232 233 234 237 239 240 241 244 247 249 248 245 246 249 248 247 249 248 245 245 246 245 245 243 243 245 246 248 250 248 248 250 253 256 256
247 287 280 253 257 281 267 155 108 90 101 106 94 103 109 87 39 336 355 27 30 45 61 68 59 67 87 138 226 242 235 203 160 127 146 199 289 330 333 322 314 298 256 220 214 215 217 225 231 231 233 236 236 236 239 240 241 243 247 250 254 254 248 246 249 249 248 250 250 250 253 254 251 247 245 244 244 244 247 250 251 252 256 259 260 258
238 253 272 259 255 267 249 141 120 124 140 143 208 221 141 49 350 344 41 359 350 15 33 36 37 42 56 64 28 267 228 213 245 41 67 20 330 335 341 344 344 336 300 228 212 213 214 216 218 222 232 239 240 241 245 246 245 244 246 249 251 250 249 248 248 249 249 250 252 255 261 262 256 249 247 249 249 249 251 252 251 251 254 259 260 260
292 227 277 279 277 274 225 129 118 134 151 167 242 252 252 288 318 73 125 232 326 358 24 29 34 44 56 60 78 186 242 244 245 165 51 352 342 343 340 344 357 3 350 276 229 226 225 224 222 224 236 249 255 257 259 262 262 254 249 250 248 246 248 249 249 250 251 253 256 258 260 260 257 253 254 259 259 255 253 253 252 251 251 255 258 259
309 319 318 341 30 37 117 129 115 106 133 165 252 278 271 249 172 129 149 183 188 83 92 19 16 31 51 59 131 200 223 203 175 195 251 277 298 314 315 321 340 5 21 18 319 258 252 250 248 254 261 264 266 267 267 270 271 264 257 255 253 248 248 249 249 250 252 254 258 259 257 259 261 260 261 266 266 261 257 255 253 251 250 251 252 251
327 354 351 357 32 55 96 117 107 78 102 229 275 309 300 211 161 154 168 183 171 149 139 52 28 57 89 84 95 130 151 164 182 212 238 250 259 272 283 299 319 341 3 14 5 334 305 275 262 264 264 266 271 272 271 272 272 270 266 261 257 253 251 250 249 249 250 253 257 259 259 261 263 263 264 267 268 265 262 258 252 247 247 247 242 236
348 32 27 13 33 66 93 100 102 108 66 318 294 331 66 128 152 165 173 156 129 126 126 120 121 124 131 126 102 86 98 156 199 212 224 229 229 236 247 269 301 323 341 356 5 7 360 336 307 286 276 278 281 281 282 283 279 277 274 268 264 261 256 253 250 248 247 248 250 254 260 261 261 263 263 263 264 263 257 252 247 240 238 247 243 229
41 22 342 21 44 79 108 114 124 135 101 35 38 92 107 119 133 151 164 145 113 95 67 246 198 176 155 128 109 105 108 133 221 222 229 233 227 213 207 225 306 331 353 11 17 12 2 348 334 323 313 307 299 293 294 294 289 284 277 271 272 270 262 257 252 248 245 245 245 248 255 256 254 256 258 259 259 256 247 246 254 255 249 250 250 241
58 39 16 55 73 89 103 107 106 95 88 93 99 102 114 122 124 133 150 148 118 104 89 294 286 130 132 119 101 106 118 135 221 216 212 223 222 193 152 132 15 18 38 42 43 25 357 350 354 346 334 324 316 309 304 296 291 285 277 272 274 272 266 260 255 251 249 248 245 243 245 247 247 251 258 262 259 254 252 261 268 268 259 247 238 244
87 108 77 81 90 104 113 118 113 102 108 132 124 116 118 120 120 126 133 129 125 115 103 45 23 69 101 109 109 127 128 141 187 191 196 205 198 176 154 151 178 129 72 25 7 0 348 346 352 353 348 339 328 319 310 299 288 281 277 275 274 271 265 258 255 256 254 248 242 237 238 242 245 250 259 265 259 252 253 263 265 262 259 248 236 240
131 176 161 134 129 126 132 149 162 157 164 202 138 126 136 133 126 120 98 99 99 94 95 88 59 68 97 114 134 153 157 159 169 185 208 217 214 215 214 214 231 248 339 342 334 334 337 345 348 346 345 339 329 319 311 300 286 277 275 272 270 271 266 257 256 262 263 253 244 240 242 247 250 254 260 262 259 252 251 255 256 254 252 246 239 240
134 169 173 166 166 152 152 181 212 207 205 239 249 219 215 202 168 136 40 23 18 37 80 104 106 85 80 104 136 156 172 187 192 201 212 216 225 236 237 240 262 276 284 302 310 312 315 319 322 324 324 319 311 303 296 286 272 265 266 265 263 264 263 257 256 259 263 261 254 246 247 251 254 257 259 257 254 250 247 245 242 240 239 237 233 229
176 172 169 180 184 173 176 199 224 222 217 244 257 243 237 242 243 276 10 347 341 340 340 15 122 140 144 199 225 199 181 194 211 214 212 214 222 231 234 243 258 265 270 280 285 280 275 277 282 286 286 284 282 279 274 269 262 259 259 258 256 254 252 252 252 253 255 259 257 253 252 252 249 248 251 252 250 245 236 224 219 222 224 224 225 224
213 205 187 201 214 204 198 208 222 228 235 251 261 262 255 246 247 273 293 297 307 310 307 304 293 223 195 205 222 229 226 217 208 207 205 206 216 226 231 237 248 256 263 267 265 262 262 260 259 259 258 257 259 260 258 254 250 248 248 246 244 242 239 238 240 242 246 250 253 255 257 257 253 248 246 249 254 253 242 226 221 226 229 227 227 230
Height
3151 3153 3153 3154 3156 3157 3159 3162 3163 3164 3164 3165 3165 3165 3166 3166 3167 3168 3169 3172 3175 3177 3179 3181 3182 3184 3186 3188 3190 3193 3195 3196 3198 3199 3200 3200 3201 3204 3204 3205 3207 3208 3209 3211 3212 3213 3213 3213 3214 3215 3216 3217 3218 3219 3220 3220 3221 3222 3223 3224 3224 3225 3226 3227 3229 3229 3230 3231 3232 3233 3234 3235 3236 3236 3237 3238 3239 3240 3241 3242 3243 3244 3245 3246 3246 3247
3150 3151 3152 3153 3155 3156 3158 3162 3163 3163 3163 3164 3165 3165 3166 3166 3166 3167 3168 3171 3174 3176 3178 3180 3182 3183 3184 3187 3189 3192 3194 3195 3197 3199 3200 3200 3201 3203 3204 3205 3207 3208 3209 3210 3211 3212 3213 3213 3214 3215 3216 3217 3218 3220 3220 3221 3222 3223 3224 3225 3225 3226 3227 3228 3229 3230 3231 3231 3232 3233 3235 3236 3236 3237 3238 3239 3240 3241 3242 3243 3244 3245 3246 3246 3247 3248
3149 3149 3151 3152 3154 3156 3157 3160 3162 3162 3162 3163 3164 3165 3165 3165 3166 3167 3169 3171 3174 3176 3177 3179 3181 3182 3183 3185 3188 3190 3192 3194 3196 3198 3199 3200 3201 3203 3204 3205 3207 3208 3208 3210 3211 3211 3212 3213 3214 3215 3216 3217 3218 3220 3221 3221 3222 3223 3224 3225 3226 3227 3227 3228 3229 3230 3231 3232 3233 3234 3235 3236 3237 3237 3238 3239 3240 3241 3242 3243 3244 3245 3246 3247 3248 3248
3148 3148 3150 3152 3154 3155 3156 3159 3161 3161 3161 3162 3163 3163 3163 3164 3165 3166 3168 3171 3173 3175 3177 3178 3180 3181 3183 3184 3186 3188 3191 3193 3194 3197 3199 3200 3201 3203 3203 3205 3206 3207 3208 3209 3210 3210 3212 3212 3213 3215 3216 3217 3218 3220 3221 3222 3223 3224 3225 3226 3227 3227 3228 3229 3230 3231 3231 3232 3233 3234 3235 3236 3237 3238 3239 3240 3241 3242 3243 3244 3245 3245 3246 3247 3248 3249
3147 3147 3148 3150 3152 3154 3154 3157 3159 3159 3160 3161 3161 3162 3162 3163 3164 3165 3167 3169 3171 3174 3176 3177 3180 3181 3182 3183 3185 3187 3189 3192 3193 3195 3198 3200 3202 3203 3203 3205 3206 3207 3208 3209 3209 3210 3211 3212 3213 3215 3216 3217 3219 3220 3221 3222 3223 3224 3225 3226 3227 3228 3229 3229 3230 3231 3232 3233 3234 3235 3236 3237 3237 3238 3239 3240 3241 3242 3243 3244 3245 3246 3247 3248 3249 3250
3145 3147 3148 3149 3150 3151 3153 3156 3157 3157 3159 3159 3159 3160 3161 3161 3163 3164 3166 3167 3169 3172 3174 3176 3179 3180 3181 3182 3183 3186 3188 3190 3192 3194 3196 3198 3201 3202 3203 3204 3205 3206 3208 3209 3209 3209 3210 3212 3213 3215 3216 3217 3218 3220 3221 3223 3224 3224 3225 3226 3227 3228 3229 3230 3231 3232 3232 3233 3234 3235 3237 3237 3238 3239 3240 3241 3242 3243 3244 3245 3246 3247 3247 3248 3249 3250
3143 3145 3147 3148 3149 3150 3152 3154 3155 3156 3157 3157 3157 3158 3159 3161 3162 3163 3164 3166 3167 3169 3172 3174 3177 3178 3179 3180 3182 3184 3187 3189 3191 3193 3194 3196 3199 3201 3202 3203 3204 3205 3207 3209 3209 3209 3210 3211 3212 3214 3216 3217 3218 3219 3221 3222 3224 3225 3226 3227 3227 3228 3229 3230 3231 3232 3233 3233 3234 3235 3237 3238 3239 3240 3240 3241 3242 3243 3244 3245 3246 3247 3248 3249 3250 3251
3142 3142 3145 3148 3148 3149 3151 3152 3153 3154 3155 3155 3155 3157 3158 3160 3162 3163 3164 3166 3166 3168 3171 3173 3175 3176 3177 3178 3181 3183 3185 3187 3189 3191 3193 3194 3196 3199 3201 3202 3203 3204 3206 3208 3209 3209 3209 3211 3212 3213 3215 3217 3218 3219 3220 3222 3223 3225 3226 3227 3228 3228 3229 3230 3231 3232 3233 3233 3234 3235 3236 3238 3239 3240 3241 3242 3243 3243 3244 3246 3247 3248 3249 3250 3251 3252
3142 3141 3143 3145 3146 3149 3150 3150 3152 3152 3152 3155 3157 3158 3158 3159 3161 3162 3164 3166 3167 3168 3170 3171 3173 3175 3175 3176 3179 3181 3183 3184 3186 3188 3191 3193 3194 3197 3199 3201 3203 3204 3205 3207 3208 3208 3209 3210 3212 3213 3215 3216 3217 3219 3220 3222 3223 3224 3226 3227 3227 3228 3229 3230 3231 3232 3233 3234 3235 3236 3237 3238 3239 3240 3241 3242 3243 3244 3245 3246 3247 3248 3250 3251 3252 3253
3141 3141 3142 3143 3145 3147 3148 3150 3152 3149 3151 3156 3157 3158 3159 3159 3160 3163 3164 3166 3167 3169 3169 3169 3170 3173 3174 3174 3176 3178 3178 3180 3184 3187 3190 3192 3193 3195 3198 3200 3202 3203 3204 3206 3207 3208 3208 3210 3212 3213 3214 3215 3217 3218 3220 3221 3223 3224 3225 3226 3227 3228 3229 3230 3231 3232 3233 3234 3235 3236 3237 3238 3239 3240 3241 3242 3243 3244 3245 3246 3247 3249 3250 3251 3252 3253
3139 3141 3141 3142 3144 3146 3147 3150 3150 3149 3152 3156 3154 3155 3158 3160 3162 3164 3164 3165 3168 3169 3167 3167 3169 3171 3172 3172 3173 3174 3175 3178 3182 3185 3187 3190 3192 3194 3196 3199 3200 3202 3203 3205 3206 3207 3208 3210 3211 3212 3213 3214 3216 3218 3219 3220 3222 3223 3225 3226 3227 3228 3229 3230 3231 3232 3233 3234 3235 3236 3237 3238 3240 3240 3242 3242 3243 3244 3246 3247 3248 3249 3250 3251 3252 3253
3137 3139 3141 3141 3143 3144 3146 3149 3149 3149 3153 3154 3151 3152 3156 3161 3163 3164 3166 3167 3169 3169 3166 3167 3169 3170 3171 3170 3171 3173 3175 3178 3180 3183 3185 3188 3190 3192 3195 3198 3199 3201 3202 3204 3205 3206 3207 3209 3210 3211 3212 3213 3214 3217 3218 3219 3221 3223 3224 3225 3227 3228 3229 3230 3232 3233 3234 3235 3235 3236 3237 3238 3240 3241 3242 3243 3243 3245 3246 3247 3248 3249 3250 3251 3252 3253
3136 3138 3140 3140 3142 3143 3143 3147 3148 3149 3152 3154 3151 3150 3154 3161 3165 3166 3168 3169 3170 3169 3167 3167 3169 3170 3169 3168 3169 3171 3173 3176 3178 3181 3184 3186 3188 3190 3193 3196 3198 3200 3201 3203 3204 3204 3206 3207 3209 3210 3211 3212 3213 3216 3218 3219 3221 3222 3223 3225 3226 3227 3229 3230 3232 3233 3234 3235 3236 3236 3237 3238 3239 3240 3241 3243 3243 3245 3246 3247 3248 3249 3250 3251 3252 3253
3136 3137 3139 3139 3140 3142 3141 3143 3146 3147 3151 3152 3150 3149 3152 3158 3163 3168 3170 3170 3169 3169 3167 3167 3168 3169 3168 3166 3168 3169 3171 3174 3177 3180 3183 3186 3188 3189 3192 3195 3197 3198 3200 3201 3202 3203 3204 3206 3208 3210 3211 3211 3212 3215 3217 3218 3220 3221 3223 3224 3225 3227 3228 3230 3231 3233 3234 3235 3236 3237 3237 3238 3239 3240 3241 3242 3243 3244 3246 3247 3248 3249 3250 3251 3252 3253
3136 3136 3137 3138 3139 3141 3141 3141 3144 3147 3149 3149 3148 3148 3150 3153 3158 3164 3167 3168 3168 3167 3167 3168 3167 3167 3166 3165 3166 3167 3169 3172 3175 3178 3181 3183 3186 3188 3191 3194 3195 3197 3199 3200 3201 3202 3203 3205 3207 3209 3210 3211 3212 3214 3216 3218 3219 3221 3222 3223 3225 3226 3228 3229 3231 3232 3233 3235 3236 3237 3237 3238 3239 3240 3241 3242 3243 3244 3245 3246 3247 3249 3250 3251 3252 3253
3136 3135 3136 3137 3138 3139 3140 3141 3144 3146 3147 3147 3147 3147 3148 3150 3153 3158 3162 3163 3165 3165 3166 3167 3166 3165 3165 3164 3164 3164 3165 3168 3171 3175 3177 3179 3183 3186 3189 3191 3193 3195 3197 3199 3200 3201 3202 3204 3206 3208 3209 3210 3212 3213 3215 3217 3218 3220 3222 3223 3224 3226 3227 3229 3230 3231 3233 3234 3235 3236 3237 3238 3239 3240 3241 3242 3243 3244 3245 3246 3247 3248 3249 3250 3251 3252
3134 3134 3134 3136 3137 3138 3139 3141 3144 3145 3145 3146 3146 3146 3147 3149 3150 3154 3159 3161 3163 3165 3166 3166 3165 3165 3164 3163 3163 3163 3163 3165 3168 3171 3174 3178 3183 3185 3187 3189 3192 3194 3195 3197 3199 3200 3201 3203 3205 3206 3208 3209 3211 3212 3214 3216 3218 3220 3221 3222 3224 3225 3227 3228 3229 3231 3232 3233 3235 3236 3237 3238 3239 3240 3241 3242 3242 3244 3245 3246 3247 3248 3249 3250 3251 3252
3134 3133 3132 3134 3136 3137 3139 3140 3142 3145 3145 3145 3147 3147 3148 3149 3150 3152 3157 3161 3163 3166 3166 3165 3165 3165 3163 3162 3162 3162 3162 3164 3168 3171 3174 3178 3181 3184 3185 3187 3190 3192 3194 3196 3197 3199 3200 3202 3203 3205 3207 3209 3210 3212 3213 3215 3217 3219 3220 3222 3223 3224 3226 3228 3229 3230 3232 3233 3234 3235 3236 3237 3238 3239 3241 3241 3242 3243 3244 3246 3247 3248 3249 3249 3250 3251
3135 3133 3131 3133 3135 3135 3139 3140 3141 3143 3144 3145 3147 3147 3148 3150 3151 3151 3154 3158 3162 3165 3165 3163 3163 3163 3161 3160 3160 3161 3162 3164 3168 3171 3172 3174 3178 3181 3184 3186 3188 3190 3193 3195 3196 3197 3198 3200 3202 3203 3206 3208 3209 3211 3213 3215 3216 3218 3220 3221 3222 3224 3225 3227 3228 3230 3231 3233 3234 3235 3236 3237 3238 3239 3240 3241 3242 3243 3244 3245 3246 3247 3248 3249 3250 3251
3135 3134 3132 3133 3135 3135 3137 3139 3140 3141 3143 3144 3146 3146 3147 3149 3150 3150 3151 3153 3157 3162 3163 3162 3162 3160 3158 3159 3159 3160 3162 3164 3166 3168 3169 3171 3174 3177 3181 3183 3185 3187 3190 3193 3194 3195 3197 3199 3200 3202 3204 3207 3208 3210 3212 3214 3215 3217 3218 3220 3221 3223 3224 3226 3227 3229 3231 3232 3233 3234 3235 3236 3238 3239 3240 3241 3242 3243 3244 3245 3246 3247 3248 3249 3250 3251
3135 3135 3134 3134 3136 3136 3136 3137 3139 3140 3141 3143 3145 3145 3146 3148 3148 3148 3149 3150 3152 3157 3159 3161 3161 3158 3156 3157 3158 3160 3161 3163 3164 3165 3166 3168 3171 3174 3178 3181 3183 3184 3188 3191 3192 3194 3196 3197 3199 3201 3203 3205 3207 3208 3210 3213 3215 3216 3217 3219 3221 3222 3223 3225 3227 3228 3230 3231 3232 3234 3235 3236 3237 3238 3239 3240 3241 3243 3244 3245 3246 3247 3248 3249 3249 3250
3135 3135 3134 3133 3134 3135 3135 3136 3138 3140 3141 3143 3144 3144 3145 3146 3147 3148 3149 3150 3150 3152 3154 3156 3157 3156 3156 3157 3157 3159 3160 3161 3163 3164 3164 3166 3168 3171 3174 3178 3181 3183 3186 3189 3191 3193 3194 3196 3198 3200 3201 3203 3205 3207 3209 3211 3214 3215 3217 3218 3220 3221 3223 3224 3226 3227 3229 3230 3231 3232 3234 3235 3237 3238 3239 3240 3241 3242 3243 3245 3246 3247 3247 3248 3249 3250
3135 3135 3134 3133 3133 3133 3134 3135 3137 3139 3141 3142 3144 3144 3144 3145 3146 3147 3148 3149 3150 3150 3151 3153 3155 3156 3156 3156 3157 3158 3159 3160 3161 3162 3162 3164 3166 3168 3172 3176 3179 3182 3185 3188 3190 3191 3193 3195 3197 3199 3200 3202 3204 3206 3208 3210 3212 3214 3216 3217 3219 3220 3222 3224 3225 3227 3228 3229 3230 3231 3233 3234 3236 3237 3238 3239 3241 3242 3243 3244 3245 3246 3247 3247 3248 3249
3136 3136 3135 3133 3132 3132 3132 3135 3137 3137 3139 3141 3142 3142 3143 3144 3144 3145 3146 3147 3149 3150 3151 3153 3156 3156 3155 3156 3156 3157 3158 3159 3160 3161 3162 3162 3164 3167 3171 3175 3178 3181 3183 3186 3188 3190 3192 3193 3195 3198 3199 3201 3203 3205 3207 3208 3210 3213 3215 3217 3218 3219 3221 3223 3224 3226 3227 3228 3230 3231 3232 3233 3235 3236 3238 3239 3240 3241 3242 3243 3244 3245 3246 3247 3247 3248
3136 3136 3136 3136 3135 3133 3131 3134 3137 3137 3138 3139 3140 3141 3143 3143 3143 3144 3145 3145 3146 3148 3149 3152 3155 3155 3155 3156 3156 3156 3157 3158 3159 3161 3162 3163 3164 3167 3170 3174 3177 3180 3182 3183 3185 3188 3190 3192 3194 3195 3197 3199 3202 3204 3206 3207 3209 3211 3213 3215 3217 3219 3220 3222 3224 3225 3226 3227 3229 3230 3231 3232 3234 3235 3236 3238 3239 3240 3241 3242 3243 3244 3245 3245 3246 3247
3137 3137 3137 3138 3139 3138 3136 3136 3137 3138 3139 3138 3138 3140 3142 3142 3142 3143 3143 3143 3144 3145 3146 3148 3150 3152 3154 3155 3155 3156 3156 3157 3159 3161 3163 3165 3167 3168 3171 3173 3175 3178 3180 3182 3183 3185 3188 3190 3192 3194 3196 3198 3201 3203 3205 3206 3208 3210 3212 3214 3216 3218 3219 3221 3222 3224 3225 3227 3228 3229 3230 3232 3233 3234 3235 3237 3238 3239 3240 3241 3242 3243 3244 3244 3245 3246
3137 3138 3138 3139 3140 3139 3139 3138 3138 3139 3139 3138 3138 3139 3139 3140 3141 3142 3142 3141 3142 3143 3145 3147 3148 3150 3152 3153 3155 3155 3156 3158 3159 3161 3163 3165 3167 3170 3171 3173 3175 3177 3179 3180 3182 3184 3186 3188 3190 3193 3195 3197 3199 3202 3204 3205 3207 3209 3211 3212 3214 3216 3218 3220 3221 3223 3225 3226 3227 3228 3230 3231 3232 3233 3235 3236 3237 3238 3239 3240 3241 3242 3242 3243 3244 3245
3137 3137 3139 3139 3139 3139 3138 3137 3137 3138 3139 3139 3139 3139 3138 3138 3141 3142 3140 3138 3139 3141 3144 3147 3148 3149 3150 3152 3154 3155 3157 3158 3159 3160 3161 3164 3167 3170 3170 3171 3173 3175 3177 3179 3180 3182 3184 3186 3188 3191 3194 3196 3198 3200 3202 3205 3207 3208 3210 3212 3213 3215 3217 3218 3220 3222 3224 3225 3226 3228 3229 3230 3231 3232 3233 3234 3236 3236 3237 3238 3239 3240 3240 3241 3242 3243
3137 3138 3138 3138 3138 3138 3137 3137 3137 3137 3139 3140 3140 3140 3138 3137 3139 3138 3136 3137 3139 3139 3142 3145 3147 3149 3150 3152 3154 3155 3156 3158 3158 3159 3160 3163 3165 3167 3168 3169 3171 3173 3175 3177 3178 3180 3183 3185 3186 3189 3192 3194 3196 3198 3200 3202 3204 3206 3208 3210 3211 3213 3215 3217 3218 3221 3223 3224 3226 3227 3228 3229 3230 3231 3232 3233 3234 3235 3235 3236 3237 3238 3239 3239 3240 3241
3138 3138 3138 3138 3138 3136 3136 3137 3137 3138 3139 3139 3139 3140 3138 3136 3136 3136 3136 3139 3141 3141 3143 3146 3148 3149 3151 3153 3155 3155 3155 3157 3158 3158 3159 3161 3163 3164 3166 3168 3169 3171 3173 3175 3175 3178 3181 3183 3186 3188 3190 3191 3193 3196 3199 3201 3203 3204 3206 3208 3209 3210 3211 3213 3215 3218 3220 3223 3224 3226 3227 3228 3228 3229 3230 3231 3232 3233 3234 3234 3235 3236 3237 3238 3239 3239
3139 3139 3138 3138 3138 3136 3136 3137 3136 3139 3141 3139 3139 3142 3139 3135 3135 3137 3139 3141 3142 3144 3146 3146 3146 3148 3152 3154 3155 3155 3155 3156 3157 3158 3158 3160 3161 3162 3164 3166 3167 3169 3171 3173 3173 3174 3176 3180 3184 3185 3185 3187 3191 3194 3197 3200 3201 3203 3205 3206 3208 3209 3210 3211 3212 3214 3217 3220 3222 3223 3225 3225 3226 3227 3228 3228 3230 3231 3231 3232 3233 3233 3234 3235 3237 3237
3139 3139 3138 3138 3137 3136 3136 3136 3136 3137 3137 3135 3139 3143 3140 3137 3138 3140 3143 3145 3145 3147 3147 3145 3146 3149 3152 3154 3155 3154 3153 3155 3156 3157 3157 3159 3160 3161 3162 3164 3165 3166 3168 3170 3172 3172 3174 3177 3179 3180 3182 3186 3191 3194 3196 3198 3199 3201 3203 3205 3207 3209 3210 3211 3211 3212 3213 3216 3219 3221 3222 3223 3224 3224 3224 3225 3226 3227 3228 3229 3230 3231 3232 3233 3234 3235
3140 3139 3138 3138 3138 3136 3136 3137 3136 3135 3135 3138 3143 3145 3143 3142 3142 3143 3145 3148 3149 3149 3148 3148 3150 3153 3154 3155 3154 3153 3153 3155 3157 3157 3156 3157 3159 3160 3162 3163 3163 3164 3166 3167 3169 3171 3175 3178 3180 3181 3184 3187 3190 3192 3195 3196 3198 3200 3202 3203 3204 3206 3207 3209 3210 3211 3211 3213 3216 3218 3219 3221 3221 3221 3221 3222 3223 3224 3225 3225 3226 3227 3229 3231 3232 3233
3140 3140 3139 3139 3139 3138 3138 3138 3137 3137 3141 3147 3149 3147 3146 3145 3144 3144 3146 3149 3150 3151 3150 3151 3153 3154 3155 3154 3153 3153 3154 3156 3158 3158 3157 3157 3158 3160 3162 3162 3162 3163 3164 3165 3166 3168 3171 3176 3180 3183 3186 3187 3189 3191 3193 3195 3196 3198 3200 3200 3201 3202 3203 3205 3207 3208 3208 3209 3211 3214 3215 3217 3218 3218 3219 3220 3221 3222 3223 3223 3224 3226 3227 3229 3230 3231
3140 3139 3139 3139 3139 3139 3139 3139 3140 3144 3148 3150 3149 3148 3148 3147 3145 3145 3146 3148 3150 3151 3152 3153 3154 3155 3155 3154 3152 3153 3156 3157 3158 3158 3159 3158 3159 3160 3161 3161 3162 3163 3163 3165 3166 3167 3169 3172 3178 3183 3186 3187 3189 3190 3192 3194 3195 3195 3196 3196 3197 3197 3198 3200 3202 3203 3204 3204 3205 3209 3211 3212 3214 3215 3216 3217 3217 3218 3219 3221 3223 3225 3225 3225 3226 3228
3140 3140 3139 3139 3139 3140 3140 3140 3143 3148 3149 3148 3147 3147 3148 3148 3147 3146 3146 3148 3150 3151 3152 3153 3154 3154 3155 3153 3153 3154 3156 3158 3158 3158 3159 3159 3159 3160 3160 3161 3162 3163 3164 3166 3167 3167 3169 3171 3175 3182 3186 3187 3187 3187 3189 3192 3192 3191 3191 3191 3191 3191 3192 3194 3196 3199 3200 3198 3198 3203 3207 3208 3209 3211 3212 3212 3213 3214 3215 3218 3220 3222 3222 3222 3224 3225
3140 3140 3140 3139 3139 3140 3140 3141 3143 3146 3147 3146 3146 3147 3148 3149 3149 3148 3148 3150 3151 3152 3152 3153 3153 3154 3154 3154 3154 3155 3157 3158 3159 3159 3160 3161 3161 3162 3162 3162 3163 3163 3164 3166 3168 3169 3170 3171 3174 3179 3183 3185 3185 3184 3185 3187 3187 3186 3185 3185 3186 3188 3191 3193 3195 3199 3200 3196 3195 3199 3203 3203 3204 3205 3205 3207 3208 3209 3211 3213 3216 3217 3218 3219 3221 3222
3140 3140 3140 3139 3139 3140 3141 3142 3143 3146 3147 3147 3147 3147 3149 3150 3150 3149 3150 3151 3152 3152 3153 3153 3153 3154 3155 3155 3156 3157 3157 3158 3159 3160 3161 3162 3164 3166 3166 3166 3166 3166 3166 3167 3168 3169 3170 3171 3173 3175 3177 3179 3180 3180 3181 3181 3182 3183 3183 3184 3187 3190 3192 3194 3195 3197 3199 3197 3195 3197 3199 3198 3198 3199 3200 3201 3202 3204 3206 3208 3210 3212 3214 3216 3217 3219
3140 3140 3140 3139 3140 3140 3140 3141 3143 3146 3147 3147 3147 3148 3149 3150 3150 3150 3150 3151 3152 3152 3153 3153 3153 3154 3154 3155 3156 3157 3158 3159 3159 3160 3162 3163 3164 3165 3167 3167 3168 3168 3168 3169 3171 3171 3171 3173 3174 3174 3175 3175 3176 3179 3179 3179 3180 3183 3184 3186 3187 3187 3188 3190 3192 3193 3194 3194 3195 3195 3195 3193 3193 3194 3196 3197 3198 3200 3201 3202 3204 3208 3211 3212 3213 3214
3139 3140 3140 3140 3140 3140 3140 3141 3143 3145 3147 3147 3147 3148 3149 3150 3150 3150 3150 3151 3151 3152 3153 3153 3153 3153 3154 3154 3155 3157 3158 3159 3159 3160 3162 3163 3163 3163 3165 3165 3165 3165 3166 3169 3172 3172 3172 3173 3173 3173 3174 3174 3176 3178 3178 3177 3180 3184 3184 3184 3184 3184 3184 3186 3188 3188 3189 3190 3192 3193 3192 3190 3190 3191 3192 3194 3195 3197 3198 3199 3201 3205 3207 3208 3208 3209
3139 3140 3140 3140 3140 3140 3140 3140 3142 3145 3146 3146 3147 3147 3149 3149 3149 3150 3151 3151 3151 3152 3153 3153 3153 3153 3154 3154 3155 3156 3158 3158 3159 3160 3161 3161 3161 3162 3162 3163 3163 3164 3164 3166 3169 3170 3171 3172 3171 3172 3174 3174 3175 3177 3177 3177 3179 3182 3183 3182 3182 3183 3182 3183 3184 3185 3185 3187 3189 3190 3189 3187 3187 3188 3189 3190 3191 3193 3195 3196 3199 3202 3203 3204 3204 3204
3139 3140 3139 3139 3139 3140 3139 3140 3142 3145 3145 3146 3146 3147 3148 3148 3148 3150 3151 3151 3152 3153 3153 3153 3153 3154 3154 3154 3154 3156 3157 3158 3159 3159 3160 3160 3160 3160 3161 3162 3163 3164 3164 3165 3166 3168 3169 3170 3171 3171 3172 3173 3173 3174 3175 3175 3177 3179 3180 3180 3180 3180 3180 3181 3182 3182 3183 3183 3185 3186 3186 3186 3186 3186 3186 3186 3187 3188 3190 3192 3195 3197 3198 3199 3200 3200
3140 3140 3140 3139 3139 3140 3141 3142 3144 3146 3146 3146 3146 3147 3146 3147 3148 3149 3150 3151 3152 3152 3153 3153 3154 3154 3154 3155 3155 3156 3157 3158 3158 3159 3159 3159 3159 3159 3160 3161 3162 3163 3164 3165 3165 3166 3167 3168 3169 3170 3171 3171 3171 3172 3173 3173 3174 3175 3177 3177 3178 3178 3178 3179 3180 3180 3180 3181 3182 3183 3184 3184 3184 3184 3185 3185 3185 3185 3186 3188 3190 3192 3193 3194 3195 3195
3141 3141 3141 3140 3140 3141 3142 3143 3146 3147 3147 3146 3146 3146 3147 3147 3148 3149 3150 3151 3152 3152 3153 3154 3154 3154 3155 3155 3155 3156 3157 3157 3158 3159 3159 3160 3160 3160 3160 3161 3162 3163 3163 3164 3165 3165 3166 3167 3168 3169 3170 3170 3171 3171 3171 3172 3172 3173 3174 3175 3175 3175 3176 3176 3176 3177 3178 3178 3179 3180 3181 3181 3182 3182 3183 3184 3184 3184 3184 3185 3186 3188 3190 3191 3192 3192
3142 3141 3141 3141 3141 3141 3142 3144 3146 3147 3147 3146 3146 3147 3147 3148 3149 3150 3151 3152 3152 3153 3153 3153 3154 3155 3155 3155 3156 3156 3157 3157 3158 3158 3159 3160 3160 3161 3161 3161 3162 3162 3163 3163 3164 3164 3165 3166 3167 3167 3168 3169 3169 3170 3170 3170 3170 3171 3172 3173 3173 3173 3174 3174 3174 3175 3175 3176 3177 3178 3179 3180 3180 3180 3181 3182 3183 3183 3184 3184 3185 3187 3188 3190 3192 3192
3142 3142 3142 3142 3142 3143 3144 3145 3146 3147 3147 3147 3147 3147 3148 3149 3150 3150 3151 3152 3153 3153 3153 3152 3153 3155 3156 3156 3156 3157 3157 3158 3158 3158 3159 3160 3160 3161 3161 3162 3162 3162 3162 3163 3163 3164 3164 3165 3165 3166 3166 3167 3168 3168 3169 3169 3170 3170 3171 3172 3172 3172 3173 3173 3174 3173 3173 3174 3176 3176 3177 3178 3178 3178 3179 3180 3181 3182 3183 3184 3185 3186 3187 3189 3191 3192
3143 3142 3142 3142 3143 3144 3145 3147 3147 3147 3146 3147 3147 3148 3149 3149 3150 3150 3151 3151 3152 3153 3153 3152 3152 3154 3156 3156 3157 3157 3157 3158 3158 3159 3159 3160 3160 3160 3161 3161 3162 3162 3162 3162 3163 3163 3164 3164 3165 3165 3165 3166 3167 3168 3168 3169 3170 3170 3170 3171 3171 3172 3172 3173 3173 3172 3172 3173 3174 3174 3175 3176 3176 3177 3178 3179 3180 3181 3182 3183 3184 3185 3186 3187 3188 3190
3142 3142 3142 3143 3143 3144 3145 3147 3147 3147 3147 3147 3148 3148 3149 3149 3150 3150 3150 3151 3152 3153 3153 3153 3152 3153 3154 3156 3156 3156 3157 3157 3158 3158 3159 3159 3160 3160 3160 3161 3161 3161 3162 3163 3162 3162 3163 3164 3164 3165 3165 3166 3167 3168 3169 3169 3170 3170 3170 3171 3171 3172 3172 3172 3173 3173 3172 3172 3172 3173 3174 3175 3175 3176 3177 3177 3178 3180 3181 3181 3182 3183 3184 3184 3185 3187
3141 3142 3143 3143 3143 3144 3145 3145 3145 3146 3146 3147 3147 3147 3148 3149 3150 3150 3150 3151 3151 3152 3153 3153 3153 3153 3153 3154 3155 3156 3156 3157 3157 3158 3158 3159 3159 3160 3160 3160 3160 3160 3161 3162 3162 3162 3162 3162 3163 3164 3165 3166 3167 3168 3169 3170 3170 3170 3170 3171 3171 3172 3172 3172 3172 3173 3173 3172 3171 3172 3172 3173 3174 3175 3175 3176 3177 3178 3179 3180 3180 3181 3182 3183 3183 3184
3141 3141 3142 3142 3143 3144 3144 3144 3144 3145 3146 3146 3146 3147 3147 3148 3149 3150 3150 3150 3151 3151 3151 3152 3153 3153 3153 3153 3154 3155 3155 3156 3156 3157 3158 3158 3158 3159 3159 3159 3159 3159 3160 3161 3161 3161 3161 3162 3162 3163 3164 3165 3166 3167 3168 3169 3170 3170 3170 3171 3171 3171 3172 3172 3172 3172 3173 3172 3172 3171 3172 3173 3173 3174 3174 3175 3176 3177 3177 3178 3179 3180 3181 3181 3182 3183
3140 3141 3142 3142 3142 3143 3143 3144 3144 3145 3145 3145 3146 3146 3147 3148 3149 3149 3150 3150 3150 3150 3151 3151 3152 3153 3153 3153 3153 3153 3154 3154 3155 3156 3157 3157 3157 3158 3158 3158 3158 3158 3158 3159 3160 3160 3160 3160 3161 3162 3163 3164 3165 3166 3167 3168 3168 3169 3169 3170 3170 3171 3171 3171 3172 3172 3172 3172 3172 3172 3172 3172 3172 3173 3174 3174 3174 3175 3176 3177 3178 3179 3180 3180 3180 3181